[[{"header":{"parameterUnit":"m.s-1","parameterCategory":1,"la1":30.2991,"la2":30.254,"lo1":-89.0895,"lo2":-89.0444,"dy":0.0017,"dx":0.0017,"nx":28,"ny":28,"refTime":"2023-08-22T21:00:00:Z","depth":0,"parameterNumber":2,"parameterNumberName":"U-component_of_WINDS"},"data":[0,0,0,0,0,0,0,0,0,0,0,0,0,0,0,0,0,0,0,0,0,0,0,0,0,0,0,0,0,0,0,0,0,0,0,0,0,0,0,0,0,0,0,0,0,0,0,0,0,0,0,0,0,0,0,0,0,0,-0.8592,-0.8593,0,-0.8647,-0.8647,-0.8648,-0.8762,-0.8764,-0.8767,-0.8769,-0.8821,-0.882,-0.882,0,0,0,0,0,0,0,0,0,0,0,0,0,-0.8583,-0.8583,-0.8592,-0.8593,-0.8593,-0.8647,-0.8647,-0.8648,-0.8762,-0.8765,-0.8767,-0.877,-0.8821,-0.882,-0.8819,0,0,0,0,0,0,0,0,0,0,0,0,0,-0.8607,-0.8582,-0.8592,-0.8657,-0.8663,-0.8647,-0.8647,-0.8648,-0.8761,-0.8765,-0.8768,-0.8771,-0.8822,-0.882,-0.8819,-0.8743,0,0,-0.8816,-0.8815,0,0,0,0,0,0,0,0,-0.8605,-0.8607,-0.8646,-0.8652,-0.8659,-0.8701,-0.8664,-0.868,-0.876,-0.8724,-0.8769,-0.8773,-0.8778,-0.8781,-0.8783,-0.8746,-0.8748,-0.8816,-0.8815,-0.8815,-0.8814,0,0,0,0,0,0,0,-0.8604,-0.8605,-0.8614,-0.8647,-0.8655,-0.8682,-0.8689,-0.8667,-0.8731,-0.8727,-0.8736,-0.8741,-0.8782,-0.8784,-0.8785,-0.8749,-0.8816,-0.8815,-0.8814,-0.8814,-0.8652,-0.8648,0,0,0,0,0,0,-0.8593,-0.8603,-0.8612,-0.8615,-0.864,-0.8679,-0.8687,-0.8684,-0.8731,-0.8742,-0.8738,-0.8746,-0.8784,-0.8787,-0.8788,-0.8702,-0.8815,-0.8814,-0.8813,-0.8655,-0.8651,-0.8647,0,0,0,0,0,0,-0.8592,-0.8593,-0.861,-0.8612,-0.8616,-0.8676,-0.8671,-0.8683,-0.8686,-0.8739,-0.8751,-0.8728,-0.8787,-0.8789,-0.8754,-0.8705,-0.8813,-0.8812,-0.866,-0.8654,-0.8649,-0.8529,0,0,0,0,0,0,-0.8592,-0.8592,-0.8564,-0.861,-0.8615,-0.8575,-0.8668,-0.8682,-0.8684,-0.8695,-0.8733,-0.8743,-0.879,-0.8755,-0.8753,-0.8706,-0.8811,-0.8664,-0.8657,-0.8651,-0.8538,-0.852,-0.8505,0,0,0,0,0,-0.8591,-0.8527,-0.8562,-0.8563,-0.8582,-0.8572,-0.8575,-0.8632,-0.8679,-0.8652,-0.8686,-0.8742,-0.8711,-0.875,-0.8749,-0.8701,-0.8667,-0.8659,-0.8651,-0.8545,-0.8524,-0.8506,0,0,0,0,0,0,-0.8472,-0.8534,-0.8574,-0.8523,-0.8542,-0.8592,-0.8558,-0.8607,-0.8612,-0.8622,-0.8691,-0.8698,-0.8653,-0.8674,-0.8716,-0.863,-0.8698,-0.8689,-0.8618,-0.8598,-0.8582,-0.8578,-0.881,0,0,0,0,0,-0.8441,-0.8428,-0.8483,-0.8433,-0.8441,-0.8497,-0.8495,-0.8537,-0.8559,-0.8567,-0.8599,-0.8617,-0.8611,-0.8606,-0.8604,-0.8542,-0.8551,-0.8508,-0.8492,-0.8478,-0.8469,-0.8438,-0.8419,-0.862,-0.862,-0.862,0,0,-0.8374,-0.8407,-0.8394,-0.841,-0.843,-0.8414,-0.8503,-0.8484,-0.8473,-0.8564,-0.8532,-0.8556,-0.8581,-0.8531,-0.8511,-0.8547,-0.8416,-0.8468,-0.8456,-0.8455,-0.8428,-0.8408,-0.8391,-0.8615,-0.8616,-0.8617,0,0,-0.8246,-0.8269,-0.823,-0.8248,-0.8277,-0.8316,-0.8306,-0.8349,-0.8369,-0.8339,-0.8407,-0.8395,-0.8384,-0.8398,-0.8404,-0.8282,-0.8333,-0.828,-0.8195,-0.8163,-0.8148,-0.8134,-0.809,-0.8073,-0.8271,-0.8271,-0.827,0,-0.8159,-0.814,-0.8204,-0.818,-0.8185,-0.8268,-0.8229,-0.8243,-0.8268,-0.8269,-0.8309,-0.8298,-0.832,-0.8276,-0.8246,-0.8248,-0.8239,-0.8275,-0.8145,-0.8132,-0.812,-0.8079,-0.8062,-0.8264,-0.8265,-0.8265,-0.8266,0,-0.8032,-0.8018,-0.7983,-0.8008,-0.8009,-0.7977,-0.8035,-0.8028,-0.807,-0.8104,-0.8073,-0.8102,-0.8108,-0.8101,-0.8141,-0.8062,-0.8083,-0.8133,-0.8203,-0.8093,-0.8056,-0.804,-0.8254,-0.8257,-0.8259,-0.826,0,0,-0.7829,-0.789,-0.7876,-0.7889,-0.7927,-0.7917,-0.7889,-0.7896,-0.7888,-0.7904,-0.7881,-0.7871,-0.7918,-0.7924,-0.7967,-0.794,-0.7841,-0.7993,-0.7995,-0.7963,-0.7755,-0.7717,-0.7698,-0.7876,-0.7873,-0.7871,-0.7753,0,-0.7709,-0.7666,-0.7723,-0.7667,-0.7654,-0.7734,-0.771,-0.773,-0.7761,-0.7754,-0.7788,-0.778,-0.7842,-0.7847,-0.7823,-0.7858,-0.78,-0.7867,-0.7855,-0.7853,-0.7845,-0.7678,-0.7638,-0.7525,-0.7739,-0.7736,-0.7735,0,-0.7563,-0.7572,-0.7515,-0.7558,-0.7555,-0.7532,-0.7543,-0.7536,-0.7561,-0.7585,-0.7593,-0.7645,-0.762,-0.7689,-0.7655,-0.7699,-0.7698,-0.7714,-0.7711,-0.7711,-0.7787,-0.7673,-0.7491,-0.7473,-0.7712,-0.7714,-0.7716,0,-0.742,-0.7418,-0.7384,-0.7393,-0.7441,-0.7423,-0.7443,-0.7471,-0.7472,-0.7481,-0.7482,-0.7488,-0.7491,-0.7494,-0.7545,-0.7591,-0.7505,-0.7578,-0.7524,-0.7522,-0.7502,-0.7502,-0.7315,-0.7501,-0.7501,-0.7502,-0.7502,0,-0.7279,-0.7241,-0.7321,-0.73,-0.7259,-0.7325,-0.7283,-0.731,-0.7335,-0.732,-0.7388,-0.7373,-0.7443,-0.7434,-0.7474,-0.744,-0.7441,-0.7459,-0.747,-0.7453,-0.745,-0.7452,-0.7461,-0.7497,-0.7498,-0.7499,-0.75,0,-0.7112,-0.7164,-0.7132,-0.7182,-0.7193,-0.7161,-0.7203,-0.7185,-0.7222,-0.7202,-0.7201,-0.7257,-0.7251,-0.7303,-0.7306,-0.7334,-0.728,-0.7305,-0.7272,-0.7279,-0.7222,-0.7226,-0.7029,-0.7007,-0.7207,-0.7205,-0.7204,0,-0.7018,-0.6991,-0.7038,-0.7034,-0.705,-0.7042,-0.7043,-0.7107,-0.7105,-0.7132,-0.711,-0.711,-0.7113,-0.7099,-0.714,-0.7143,-0.7168,-0.7099,-0.7168,-0.7152,-0.7166,-0.7167,-0.7164,-0.7083,-0.7081,-0.7079,-0.7077,0,-0.6846,-0.6874,-0.6874,-0.6883,-0.6883,-0.6893,-0.6908,-0.69,-0.6969,-0.6964,-0.6959,-0.6961,-0.6966,-0.6964,-0.6975,-0.6994,-0.7046,-0.7055,-0.7043,-0.7024,-0.7006,-0.7015,-0.7231,-0.7059,-0.7061,-0.7062,-0.7063,-0.7064,-0.6713,-0.6693,-0.6723,-0.6721,-0.6739,-0.6751,-0.6736,-0.6772,-0.6769,-0.6778,-0.6816,-0.6804,-0.683,-0.6851,-0.6865,-0.6856,-0.689,-0.6872,-0.6867,-0.6861,-0.6851,-0.7008,-0.6859,-0.6859,-0.686,-0.686,-0.6861,0,-0.6544,-0.6568,-0.6565,-0.6584,-0.6582,-0.6634,-0.6653,-0.6647,-0.6637,-0.6657,-0.6659,-0.6653,-0.6653,-0.6694,-0.6698,-0.6683,-0.6707,-0.6682,-0.6683,-0.6687,-0.6821,-0.6831,-0.6662,-0.6663,-0.6663,-0.6663,-0.6663,-0.6663,-0.6456,-0.6424,-0.6456,-0.6433,-0.6458,-0.6448,-0.6454,-0.6465,-0.6482,-0.6473,-0.6473,-0.6501,-0.6529,-0.6536,-0.6538,-0.655,-0.6548,-0.6514,-0.6534,-0.6658,-0.6677,-0.6696,-0.6706,-0.6513,-0.6513,-0.6401,-0.64,-0.6399]},{"header":{"parameterUnit":"m.s-1","parameterCategory":1,"la1":30.2991,"la2":30.254,"lo1":-89.0895,"lo2":-89.0444,"dy":0.0017,"dx":0.0017,"nx":28,"ny":28,"refTime":"2023-08-22T21:00:00:Z","depth":0,"parameterNumber":3,"parameterNumberName":"V-component_of_WINDS"},"data":[0,0,0,0,0,0,0,0,0,0,0,0,0,0,0,0,0,0,0,0,0,0,0,0,0,0,0,0,0,0,0,0,0,0,0,0,0,0,0,0,0,0,0,0,0,0,0,0,0,0,0,0,0,0,0,0,0,0,-1.9443,-1.9443,0,-1.9421,-1.9421,-1.9421,-1.9355,-1.9354,-1.9352,-1.9351,-1.9328,-1.9328,-1.9329,0,0,0,0,0,0,0,0,0,0,0,0,0,-1.9431,-1.9431,-1.9443,-1.9443,-1.9443,-1.9421,-1.9421,-1.9421,-1.9355,-1.9354,-1.9352,-1.935,-1.9327,-1.9328,-1.9329,0,0,0,0,0,0,0,0,0,0,0,0,0,-1.9425,-1.9431,-1.9444,-1.9408,-1.9404,-1.9421,-1.9421,-1.9421,-1.9356,-1.9354,-1.9351,-1.9349,-1.9327,-1.9328,-1.9329,-1.9379,0,0,-1.9333,-1.9333,0,0,0,0,0,0,0,0,-1.9426,-1.9426,-1.9413,-1.941,-1.9406,-1.9389,-1.9408,-1.9407,-1.9356,-1.9374,-1.9351,-1.9348,-1.935,-1.9349,-1.9349,-1.9378,-1.9377,-1.9333,-1.9333,-1.9334,-1.9334,0,0,0,0,0,0,0,-1.9426,-1.9426,-1.9435,-1.9413,-1.9409,-1.9393,-1.939,-1.9407,-1.9374,-1.9372,-1.9368,-1.9366,-1.9347,-1.9348,-1.9348,-1.9377,-1.9333,-1.9334,-1.9334,-1.9335,-1.9448,-1.945,0,0,0,0,0,0,-1.9431,-1.9427,-1.9435,-1.9434,-1.9411,-1.9395,-1.9392,-1.9397,-1.9374,-1.9368,-1.9368,-1.9363,-1.9348,-1.9347,-1.9347,-1.9406,-1.9334,-1.9335,-1.9335,-1.9446,-1.9448,-1.9451,0,0,0,0,0,0,-1.9431,-1.9433,-1.9436,-1.9429,-1.9428,-1.9398,-1.9404,-1.9397,-1.9398,-1.937,-1.9364,-1.9375,-1.9346,-1.9346,-1.9372,-1.9404,-1.9335,-1.9336,-1.9443,-1.9446,-1.945,-1.9523,0,0,0,0,0,0,-1.9431,-1.9433,-1.9451,-1.943,-1.9429,-1.9462,-1.9406,-1.9398,-1.94,-1.9394,-1.9375,-1.937,-1.9344,-1.9371,-1.9373,-1.9405,-1.9337,-1.944,-1.9444,-1.9449,-1.9518,-1.9529,-1.9538,0,0,0,0,0,-1.9431,-1.9472,-1.9453,-1.9454,-1.9451,-1.9463,-1.9463,-1.9432,-1.9403,-1.9422,-1.9404,-1.9371,-1.94,-1.9374,-1.9376,-1.9408,-1.9438,-1.9443,-1.9448,-1.9513,-1.9527,-1.9538,0,0,0,0,0,0,-1.9497,-1.9469,-1.9447,-1.9482,-1.9476,-1.9452,-1.9475,-1.9447,-1.9449,-1.9442,-1.9404,-1.9401,-1.9433,-1.9423,-1.9395,-1.9457,-1.9414,-1.942,-1.9462,-1.9475,-1.9485,-1.9487,-1.9338,0,0,0,0,0,-1.9516,-1.9528,-1.9503,-1.9536,-1.9535,-1.9506,-1.9509,-1.9487,-1.9479,-1.9475,-1.946,-1.9453,-1.9461,-1.9467,-1.9473,-1.9516,-1.9512,-1.9539,-1.9549,-1.9558,-1.9564,-1.9588,-1.9601,-1.9468,-1.9468,-1.9468,0,0,-1.9555,-1.9541,-1.9551,-1.9549,-1.9542,-1.9556,-1.9503,-1.952,-1.9531,-1.9478,-1.9503,-1.9491,-1.9481,-1.9517,-1.9532,-1.951,-1.9599,-1.9564,-1.9571,-1.9573,-1.9595,-1.9608,-1.9619,-1.9472,-1.9471,-1.9471,0,0,-1.9633,-1.9623,-1.9651,-1.9646,-1.9635,-1.9616,-1.9623,-1.9604,-1.9595,-1.9619,-1.958,-1.9593,-1.9606,-1.9602,-1.9601,-1.9681,-1.9651,-1.9684,-1.9738,-1.9762,-1.9773,-1.9782,-1.9812,-1.9824,-1.969,-1.969,-1.969,0,-1.9683,-1.9703,-1.9669,-1.969,-1.9691,-1.9645,-1.9674,-1.9669,-1.9662,-1.9664,-1.9639,-1.9657,-1.9647,-1.9683,-1.9703,-1.9703,-1.9711,-1.9686,-1.9774,-1.9783,-1.9791,-1.9819,-1.9831,-1.9694,-1.9693,-1.9693,-1.9693,0,-1.9766,-1.978,-1.9804,-1.9799,-1.9803,-1.9828,-1.9799,-1.9807,-1.9784,-1.9768,-1.9795,-1.9781,-1.9785,-1.9791,-1.9768,-1.9824,-1.9811,-1.978,-1.9737,-1.9808,-1.9835,-1.9845,-1.97,-1.9698,-1.9697,-1.9696,0,0,-1.9884,-1.9862,-1.9872,-1.987,-1.9856,-1.9867,-1.989,-1.9894,-1.9903,-1.9899,-1.9919,-1.9933,-1.9905,-1.9905,-1.9881,-1.9903,-1.997,-1.987,-1.9869,-1.9891,-2.0033,-2.0058,-2.0071,-1.995,-1.9952,-1.9953,-2.0035,0,-1.9961,-1.9999,-1.9971,-2.0015,-2.0029,-1.9986,-2.0007,-2.0001,-1.9987,-1.9997,-1.9981,-1.9993,-1.9954,-1.9954,-1.9973,-1.9958,-1.9998,-1.9951,-1.9969,-1.997,-1.9975,-2.0085,-2.011,-2.0188,-2.0045,-2.0047,-2.0048,0,-2.0054,-2.0056,-2.0102,-2.0088,-2.0093,-2.0112,-2.0115,-2.0125,-2.0118,-2.0106,-2.0107,-2.0079,-2.0102,-2.0058,-2.009,-2.0059,-2.0065,-2.0058,-2.0061,-2.0062,-2.0015,-2.0091,-2.0212,-2.0224,-2.0063,-2.0062,-2.0061,0,-2.0139,-2.0153,-2.0183,-2.0183,-2.0166,-2.0181,-2.0175,-2.0166,-2.0171,-2.0173,-2.0177,-2.0181,-2.0184,-2.0189,-2.0163,-2.0134,-2.02,-2.0153,-2.0192,-2.0193,-2.0209,-2.0209,-2.0334,-2.021,-2.021,-2.021,-2.0209,0,-2.0228,-2.0259,-2.0222,-2.0241,-2.0274,-2.0241,-2.0275,-2.0264,-2.0257,-2.0274,-2.0236,-2.0253,-2.0217,-2.023,-2.021,-2.0241,-2.0242,-2.0234,-2.0229,-2.0239,-2.024,-2.0243,-2.0238,-2.0213,-2.0212,-2.0211,-2.0211,0,-2.0329,-2.0306,-2.0336,-2.0318,-2.0315,-2.034,-2.0326,-2.0343,-2.0327,-2.0348,-2.0351,-2.0326,-2.034,-2.0315,-2.0324,-2.0311,-2.0356,-2.0341,-2.0359,-2.0355,-2.0396,-2.0394,-2.0529,-2.0547,-2.041,-2.0411,-2.0412,0,-2.0388,-2.0411,-2.0397,-2.0405,-2.0402,-2.0416,-2.0421,-2.039,-2.0398,-2.0394,-2.0412,-2.0422,-2.043,-2.0454,-2.0437,-2.0445,-2.0431,-2.0478,-2.0432,-2.0442,-2.0435,-2.0435,-2.0438,-2.0488,-2.049,-2.0491,-2.0492,0,-2.0497,-2.0485,-2.0494,-2.05,-2.0508,-2.0512,-2.0512,-2.0521,-2.0489,-2.0499,-2.0514,-2.0519,-2.0531,-2.0543,-2.0547,-2.0541,-2.0513,-2.0507,-2.0517,-2.0528,-2.0538,-2.0536,-2.0387,-2.0504,-2.0503,-2.0502,-2.0501,-2.0501,-2.058,-2.0599,-2.0593,-2.0605,-2.0603,-2.0605,-2.0621,-2.0608,-2.0619,-2.0626,-2.0607,-2.0627,-2.0622,-2.0625,-2.0622,-2.0638,-2.0617,-2.063,-2.0634,-2.0639,-2.0647,-2.0535,-2.0638,-2.0638,-2.0637,-2.0637,-2.0637,0,-2.0688,-2.0683,-2.0694,-2.0697,-2.0708,-2.068,-2.068,-2.0691,-2.0708,-2.0706,-2.0714,-2.0732,-2.0744,-2.0729,-2.0738,-2.0754,-2.0741,-2.0757,-2.0757,-2.0757,-2.0663,-2.0655,-2.0768,-2.0768,-2.0768,-2.0768,-2.0768,-2.0768,-2.0746,-2.0778,-2.0766,-2.0797,-2.079,-2.081,-2.0813,-2.0815,-2.0813,-2.0835,-2.0845,-2.0835,-2.0828,-2.0837,-2.0848,-2.0843,-2.0849,-2.0871,-2.0862,-2.0776,-2.0763,-2.0751,-2.0743,-2.0872,-2.0872,-2.0954,-2.0955,-2.0956]}]]